| time (UTC) | temp F | wind direction | speed MPH | gust MPH | rain 1hr in | rain 24hr in | rain mn in | humidity % | barometer mb |
| 20260831131305 | 53 | 296 | 0.0 | 0.0 | 0.00 | 0.00 | 0.00 | 10 | 1016.6 |
| 20260831130759 | 52 | 296 | 0.0 | 0.0 | 0.00 | 0.00 | 0.00 | 10 | 1016.5 |
| 20260831130255 | 52 | 287 | 0.0 | 0.0 | 0.00 | 0.00 | 0.00 | 10 | 1016.3 |
| 20260831125754 | 51 | 308 | 0.0 | 0.0 | 0.00 | 0.00 | 0.00 | 10 | 1016.2 |
| 20260831125249 | 51 | 293 | 0.0 | 0.0 | 0.00 | 0.00 | 0.00 | 10 | 1016.4 |
| 20260831124744 | 50 | 285 | 0.0 | 0.0 | 0.00 | 0.00 | 0.00 | 10 | 1016.3 |
| 20260831124240 | 50 | 284 | 0.0 | 0.0 | 0.00 | 0.00 | 0.00 | 10 | 1016.3 |
| 20260831123735 | 51 | 303 | 0.0 | 0.0 | 0.00 | 0.00 | 0.00 | 10 | 1016.1 |
| 20260831123234 | 51 | 270 | 0.0 | 0.0 | 0.00 | 0.00 | 0.00 | 10 | 1016.3 |
| 20260831122733 | 51 | 298 | 0.0 | 1.0 | 0.00 | 0.00 | 0.00 | 10 | 1016.1 |
| 20260831122230 | 51 | 294 | 0.0 | 0.0 | 0.00 | 0.00 | 0.00 | 10 | 1016.1 |
| 20260831121728 | 50 | 279 | 0.0 | 0.0 | 0.00 | 0.00 | 0.00 | 10 | 1016.3 |
| 20260831121225 | 49 | 281 | 0.0 | 0.0 | 0.00 | 0.00 | 0.00 | 10 | 1015.8 |
| 20260831120721 | 48 | 302 | 0.0 | 0.0 | 0.00 | 0.00 | 0.00 | 10 | 1016.1 |
| 20260831120215 | 49 | 296 | 0.0 | 0.0 | 0.00 | 0.00 | 0.00 | 10 | 1015.9 |
| 20260831115711 | 49 | 303 | 0.0 | 0.0 | 0.00 | 0.00 | 0.00 | 10 | 1015.9 |
| 20260831115207 | 49 | 288 | 0.0 | 0.0 | 0.00 | 0.00 | 0.00 | 10 | 1015.7 |
| 20260831114706 | 49 | 296 | 0.0 | 0.0 | 0.00 | 0.00 | 0.00 | 10 | 1015.9 |
| 20260831114205 | 49 | 297 | 0.0 | 1.0 | 0.00 | 0.00 | 0.00 | 10 | 1015.9 |
| 20260831113701 | 49 | 297 | 1.0 | 2.0 | 0.00 | 0.00 | 0.00 | 10 | 1015.9 |
| 20260831113155 | 49 | 286 | 0.0 | 0.0 | 0.00 | 0.00 | 0.00 | 10 | 1015.9 |
| 20260831112654 | 49 | 195 | 0.0 | 0.0 | 0.00 | 0.00 | 0.00 | 10 | 1015.7 |
| 20260831112150 | 49 | 290 | 0.0 | 0.0 | 0.00 | 0.00 | 0.00 | 10 | 1015.9 |
| 20260831111645 | 48 | 277 | 0.0 | 0.0 | 0.00 | 0.00 | 0.00 | 10 | 1015.8 |
| 20260831111141 | 49 | 283 | 0.0 | 1.0 | 0.00 | 0.00 | 0.00 | 10 | 1015.7 |
| 20260831110637 | 48 | 287 | 0.0 | 0.0 | 0.00 | 0.00 | 0.00 | 10 | 1015.9 |
| 20260831110132 | 48 | 258 | 0.0 | 1.0 | 0.00 | 0.00 | 0.00 | 10 | 1015.6 |
| 20260831105631 | 48 | 285 | 0.0 | 2.0 | 0.00 | 0.00 | 0.00 | 10 | 1015.9 |
| 20260831105126 | 48 | 295 | 1.0 | 2.0 | 0.00 | 0.00 | 0.00 | 10 | 1015.6 |
| 20260831104622 | 48 | 316 | 1.0 | 2.0 | 0.00 | 0.00 | 0.00 | 10 | 1015.3 |
| 20260831104118 | 49 | 325 | 1.0 | 2.0 | 0.00 | 0.00 | 0.00 | 10 | 1015.4 |
| 20260831103613 | 49 | 306 | 0.0 | 0.0 | 0.00 | 0.00 | 0.00 | 10 | 1015.2 |
| 20260831103108 | 49 | 304 | 0.0 | 0.0 | 0.00 | 0.00 | 0.00 | 10 | 1015.4 |
| 20260831102603 | 49 | 321 | 2.0 | 3.0 | 0.00 | 0.00 | 0.00 | 10 | 1015.2 |
| 20260831102058 | 49 | 306 | 2.0 | 3.0 | 0.00 | 0.00 | 0.00 | 10 | 1015.1 |
| 20260831101557 | 49 | 310 | 0.0 | 3.0 | 0.00 | 0.00 | 0.00 | 10 | 1015.1 |
| 20260831101054 | 49 | 312 | 0.0 | 0.0 | 0.00 | 0.00 | 0.00 | 10 | 1015.0 |
| 20260831100549 | 50 | 299 | 0.0 | 0.0 | 0.00 | 0.00 | 0.00 | 10 | 1015.0 |
| 20260831100045 | 50 | 290 | 0.0 | 1.0 | 0.00 | 0.00 | 0.00 | 10 | 1014.8 |
| 20260831095543 | 50 | 311 | 0.0 | 1.0 | 0.00 | 0.00 | 0.00 | 10 | 1014.8 |
| 20260831095038 | 50 | 282 | 0.0 | 1.0 | 0.00 | 0.00 | 0.00 | 10 | 1014.8 |
| 20260831094534 | 50 | 294 | 0.0 | 2.0 | 0.00 | 0.00 | 0.00 | 10 | 1015.0 |
| 20260831094030 | 50 | 298 | 0.0 | 2.0 | 0.00 | 0.00 | 0.00 | 10 | 1014.7 |
| 20260831093525 | 50 | 301 | 0.0 | 1.0 | 0.00 | 0.00 | 0.00 | 10 | 1015.2 |
| 20260831093021 | 50 | 278 | 0.0 | 1.0 | 0.00 | 0.00 | 0.00 | 10 | 1015.0 |
| 20260831092517 | 50 | 279 | 0.0 | 0.0 | 0.00 | 0.00 | 0.00 | 10 | 1015.1 |
| 20260831092013 | 50 | 292 | 0.0 | 2.0 | 0.00 | 0.00 | 0.00 | 10 | 1014.6 |
| 20260831091507 | 50 | 296 | 0.0 | 0.0 | 0.00 | 0.00 | 0.00 | 10 | 1014.8 |
| 20260831091003 | 50 | 291 | 0.0 | 2.0 | 0.00 | 0.00 | 0.00 | 10 | 1014.5 |
| 20260831090458 | 50 | 307 | 1.0 | 2.0 | 0.00 | 0.00 | 0.00 | 10 | 1014.6 |
| 20260831085954 | 50 | 275 | 0.0 | 5.0 | 0.00 | 0.00 | 0.00 | 10 | 1015.0 |
| 20260831085449 | 50 | 279 | 0.0 | 0.0 | 0.00 | 0.00 | 0.00 | 10 | 1014.4 |
| 20260831084949 | 50 | 274 | 0.0 | 1.0 | 0.00 | 0.00 | 0.00 | 10 | 1014.6 |
| 20260831084445 | 49 | 288 | 0.0 | 0.0 | 0.00 | 0.00 | 0.00 | 10 | 1014.7 |
| 20260831083942 | 49 | 302 | 0.0 | 0.0 | 0.00 | 0.00 | 0.00 | 10 | 1014.6 |
| 20260831083436 | 49 | 284 | 0.0 | 0.0 | 0.00 | 0.00 | 0.00 | 10 | 1014.6 |
| 20260831082935 | 49 | 281 | 0.0 | 1.0 | 0.00 | 0.00 | 0.00 | 10 | 1014.5 |
| 20260831082429 | 49 | 285 | 1.0 | 3.0 | 0.00 | 0.00 | 0.00 | 10 | 1014.4 |
| 20260831081925 | 49 | 251 | 0.0 | 2.0 | 0.00 | 0.00 | 0.00 | 10 | 1014.3 |
| 20260831081421 | 49 | 219 | 0.0 | 0.0 | 0.00 | 0.00 | 0.00 | 10 | 1014.3 |
| 20260831080917 | 49 | 230 | 0.0 | 0.0 | 0.00 | 0.00 | 0.00 | 10 | 1014.3 |
| 20260831080411 | 50 | 227 | 0.0 | 0.0 | 0.00 | 0.00 | 0.00 | 10 | 1014.4 |
| 20260831075907 | 50 | 206 | 0.0 | 0.0 | 0.00 | 0.00 | 0.00 | 10 | 1014.4 |
| 20260831075402 | 49 | 266 | 0.0 | 0.0 | 0.00 | 0.00 | 0.00 | 10 | 1014.2 |
| 20260831074857 | 49 | 295 | 0.0 | 0.0 | 0.00 | 0.00 | 0.00 | 10 | 1014.0 |
| 20260831074356 | 49 | 307 | 0.0 | 1.0 | 0.00 | 0.00 | 0.00 | 10 | 1013.9 |
| 20260831073851 | 50 | 322 | 0.0 | 1.0 | 0.00 | 0.00 | 0.00 | 10 | 1013.9 |
| 20260831073351 | 50 | 312 | 0.0 | 1.0 | 0.00 | 0.00 | 0.00 | 10 | 1013.9 |
| 20260831072846 | 50 | 315 | 0.0 | 2.0 | 0.00 | 0.00 | 0.00 | 10 | 1013.9 |
| 20260831072341 | 49 | 307 | 0.0 | 1.0 | 0.00 | 0.00 | 0.00 | 10 | 1014.0 |
| 20260831071838 | 50 | 282 | 0.0 | 1.0 | 0.00 | 0.00 | 0.00 | 10 | 1014.0 |
| 20260831071336 | 50 | 308 | 0.0 | 1.0 | 0.00 | 0.00 | 0.00 | 10 | 1014.2 |
| 20260831070832 | 50 | 291 | 0.0 | 1.0 | 0.00 | 0.00 | 0.00 | 10 | 1014.0 |
| 20260831070330 | 51 | 258 | 0.0 | 0.0 | 0.00 | 0.00 | 0.00 | 10 | 1013.6 |
| 20260831065830 | 51 | 305 | 0.0 | 2.0 | 0.00 | 0.00 | 0.00 | 10 | 1014.2 |
| 20260831065328 | 51 | 313 | 0.0 | 2.0 | 0.00 | 0.00 | 0.00 | 10 | 1014.1 |
| 20260831064823 | 51 | 307 | 0.0 | 1.0 | 0.00 | 0.00 | 0.00 | 10 | 1014.2 |
| 20260831064318 | 52 | 302 | 0.0 | 0.0 | 0.00 | 0.00 | 0.00 | 10 | 1014.1 |
| 20260831063814 | 51 | 306 | 0.0 | 1.0 | 0.00 | 0.00 | 0.00 | 10 | 1013.9 |
| 20260831063309 | 51 | 287 | 1.0 | 2.0 | 0.00 | 0.00 | 0.00 | 10 | 1014.0 |
| 20260831062809 | 51 | 306 | 0.0 | 0.0 | 0.00 | 0.00 | 0.00 | 10 | 1014.1 |
| 20260831062306 | 51 | 302 | 0.0 | 1.0 | 0.00 | 0.00 | 0.00 | 10 | 1014.3 |
| 20260831061802 | 51 | 307 | 0.0 | 1.0 | 0.00 | 0.00 | 0.00 | 10 | 1014.1 |
| 20260831061257 | 51 | 302 | 0.0 | 1.0 | 0.00 | 0.00 | 0.00 | 10 | 1014.4 |
| 20260831060754 | 51 | 315 | 0.0 | 0.0 | 0.00 | 0.00 | 0.00 | 10 | 1014.3 |
| 20260831060253 | 51 | 303 | 0.0 | 1.0 | 0.00 | 0.00 | 0.00 | 10 | 1014.1 |
| 20260831055753 | 52 | 291 | 0.0 | 2.0 | 0.00 | 0.01 | 0.01 | 10 | 1014.1 |
| 20260831055248 | 52 | 302 | 0.0 | 5.0 | 0.00 | 0.01 | 0.01 | 10 | 1014.1 |
| 20260831054743 | 52 | 307 | 0.0 | 2.0 | 0.00 | 0.01 | 0.01 | 10 | 1014.0 |
| 20260831054238 | 52 | 302 | 1.0 | 2.0 | 0.00 | 0.01 | 0.01 | 10 | 1014.0 |
| 20260831053736 | 53 | 291 | 1.0 | 3.0 | 0.00 | 0.01 | 0.01 | 10 | 1014.1 |
| 20260831053235 | 53 | 286 | 0.0 | 1.0 | 0.00 | 0.01 | 0.01 | 10 | 1013.9 |
| 20260831052729 | 53 | 302 | 0.0 | 0.0 | 0.00 | 0.01 | 0.01 | 10 | 1014.0 |
| 20260831052223 | 53 | 297 | 0.0 | 0.0 | 0.00 | 0.01 | 0.01 | 10 | 1013.7 |
| 20260831051721 | 53 | 289 | 0.0 | 1.0 | 0.00 | 0.01 | 0.01 | 10 | 1013.5 |
| 20260831051220 | 53 | 285 | 0.0 | 0.0 | 0.00 | 0.01 | 0.01 | 10 | 1014.0 |
| 20260831050715 | 53 | 286 | 1.0 | 1.0 | 0.00 | 0.01 | 0.01 | 10 | 1014.0 |
| 20260831050214 | 53 | 292 | 0.0 | 1.0 | 0.00 | 0.01 | 0.01 | 10 | 1013.6 |
| 20260831045709 | 54 | 259 | 1.0 | 2.0 | 0.00 | 0.01 | 0.01 | 10 | 1013.7 |
| 20260831045204 | 54 | 300 | 0.0 | 1.0 | 0.00 | 0.01 | 0.01 | 10 | 1013.7 |
| 20260831044658 | 54 | 286 | 2.0 | 2.0 | 0.00 | 0.01 | 0.01 | 10 | 1013.7 |
| 20260831044153 | 54 | 283 | 1.0 | 2.0 | 0.00 | 0.01 | 0.01 | 10 | 1013.4 |
| 20260831043649 | 54 | 297 | 1.0 | 3.0 | 0.00 | 0.01 | 0.01 | 10 | 1013.5 |
| 20260831043144 | 54 | 294 | 0.0 | 2.0 | 0.00 | 0.01 | 0.01 | 10 | 1013.6 |
| 20260831042643 | 54 | 302 | 0.0 | 3.0 | 0.00 | 0.01 | 0.01 | 10 | 1013.6 |
| 20260831042138 | 54 | 302 | 0.0 | 2.0 | 0.00 | 0.01 | 0.01 | 10 | 1013.6 |
| 20260831041632 | 54 | 282 | 0.0 | 2.0 | 0.00 | 0.01 | 0.01 | 10 | 1013.6 |
| 20260831041127 | 55 | 287 | 0.0 | 1.0 | 0.00 | 0.01 | 0.01 | 10 | 1013.7 |
| 20260831040622 | 55 | 296 | 0.0 | 14.0 | 0.00 | 0.01 | 0.01 | 10 | 1013.6 |
| 20260831040121 | 55 | 271 | 0.0 | 1.0 | 0.00 | 0.01 | 0.01 | 10 | 1013.5 |
| 20260831035620 | 55 | 229 | 0.0 | 1.0 | 0.00 | 0.01 | 0.01 | 10 | 1013.5 |
| 20260831035114 | 55 | 338 | 0.0 | 1.0 | 0.00 | 0.01 | 0.01 | 10 | 1013.6 |
| 20260831034614 | 55 | 276 | 0.0 | 0.0 | 0.00 | 0.01 | 0.01 | 10 | 1013.6 |
| 20260831034109 | 56 | 294 | 1.0 | 1.0 | 0.00 | 0.01 | 0.01 | 10 | 1013.6 |
| 20260831033605 | 56 | 291 | 0.0 | 0.0 | 0.00 | 0.01 | 0.01 | 10 | 1014.0 |
| 20260831033100 | 56 | 313 | 0.0 | 0.0 | 0.00 | 0.01 | 0.01 | 10 | 1013.9 |
| 20260831032559 | 56 | 300 | 0.0 | 0.0 | 0.00 | 0.01 | 0.01 | 10 | 1013.7 |
| 20260831032055 | 56 | 296 | 0.0 | 1.0 | 0.00 | 0.01 | 0.01 | 10 | 1013.6 |
| 20260831031554 | 56 | 304 | 0.0 | 0.0 | 0.00 | 0.01 | 0.01 | 10 | 1013.6 |
| 20260831031054 | 56 | 302 | 0.0 | 2.0 | 0.00 | 0.01 | 0.01 | 10 | 1013.6 |
| 20260831030553 | 56 | 298 | 1.0 | 2.0 | 0.00 | 0.01 | 0.01 | 10 | 1013.7 |
| 20260831030052 | 57 | 307 | 0.0 | 3.0 | 0.00 | 0.01 | 0.01 | 10 | 1013.5 |
| 20260831025551 | 57 | 303 | 0.0 | 2.0 | 0.00 | 0.01 | 0.01 | 10 | 1013.3 |
| 20260831025046 | 57 | 300 | 0.0 | 2.0 | 0.00 | 0.01 | 0.01 | 10 | 1013.3 |
| 20260831024542 | 57 | 296 | 0.0 | 2.0 | 0.00 | 0.01 | 0.01 | 10 | 1013.0 |
| 20260831024041 | 57 | 312 | 0.0 | 1.0 | 0.00 | 0.01 | 0.01 | 10 | 1013.2 |
| 20260831023539 | 57 | 303 | 0.0 | 1.0 | 0.00 | 0.01 | 0.01 | 10 | 1013.1 |
| 20260831023034 | 56 | 305 | 0.0 | 0.0 | 0.00 | 0.01 | 0.01 | 10 | 1013.0 |
| 20260831022533 | 57 | 307 | 0.0 | 0.0 | 0.00 | 0.01 | 0.01 | 10 | 1012.9 |
| 20260831022029 | 57 | 339 | 0.0 | 0.0 | 0.00 | 0.01 | 0.01 | 10 | 1012.7 |
| 20260831021527 | 57 | 302 | 0.0 | 1.0 | 0.00 | 0.01 | 0.01 | 10 | 1012.9 |
| 20260831021024 | 57 | 308 | 0.0 | 1.0 | 0.00 | 0.01 | 0.01 | 10 | 1012.9 |
| 20260831020519 | 57 | 311 | 0.0 | 0.0 | 0.00 | 0.01 | 0.01 | 10 | 1013.0 |
| 20260831020013 | 58 | 314 | 0.0 | 0.0 | 0.00 | 0.01 | 0.01 | 10 | 1013.0 |
| 20260831015509 | 58 | 313 | 0.0 | 0.0 | 0.00 | 0.01 | 0.01 | 10 | 1012.7 |
| 20260831015004 | 58 | 308 | 0.0 | 0.0 | 0.00 | 0.01 | 0.01 | 10 | 1012.6 |
| 20260831014458 | 58 | 304 | 0.0 | 1.0 | 0.00 | 0.01 | 0.01 | 10 | 1012.7 |
| 20260831013953 | 58 | 281 | 0.0 | 1.0 | 0.00 | 0.01 | 0.01 | 10 | 1012.6 |
| 20260831013449 | 57 | 302 | 0.0 | 1.0 | 0.00 | 0.01 | 0.01 | 10 | 1012.5 |
| 20260831012944 | 56 | 289 | 0.0 | 1.0 | 0.00 | 0.01 | 0.01 | 10 | 1012.6 |
| 20260831012439 | 57 | 288 | 0.0 | 0.0 | 0.00 | 0.01 | 0.01 | 10 | 1012.3 |
| 20260831011938 | 57 | 288 | 0.0 | 0.0 | 0.00 | 0.01 | 0.01 | 10 | 1012.7 |
| 20260831011433 | 57 | 279 | 0.0 | 1.0 | 0.00 | 0.01 | 0.01 | 10 | 1012.6 |
| 20260831010929 | 57 | 300 | 0.0 | 3.0 | 0.00 | 0.01 | 0.01 | 10 | 1012.7 |
| 20260831010424 | 57 | 308 | 1.0 | 3.0 | 0.00 | 0.01 | 0.01 | 10 | 1012.9 |
| 20260831005919 | 58 | 307 | 1.0 | 3.0 | 0.00 | 0.01 | 0.01 | 10 | 1013.2 |
| 20260831005415 | 59 | 312 | 1.0 | 3.0 | 0.00 | 0.01 | 0.01 | 10 | 1013.0 |
| 20260831004909 | 59 | 307 | 0.0 | 3.0 | 0.00 | 0.01 | 0.01 | 10 | 1012.9 |
| 20260831004406 | 59 | 312 | 0.0 | 1.0 | 0.00 | 0.01 | 0.01 | 10 | 1012.9 |
| 20260831003901 | 59 | 302 | 0.0 | 3.0 | 0.00 | 0.01 | 0.01 | 10 | 1013.1 |
| 20260831003357 | 59 | 307 | 1.0 | 5.0 | 0.00 | 0.01 | 0.01 | 10 | 1012.9 |
| 20260831002857 | 59 | 319 | 0.0 | 3.0 | 0.00 | 0.01 | 0.01 | 10 | 1013.2 |
| 20260831002356 | 59 | 309 | 2.0 | 6.0 | 0.00 | 0.01 | 0.01 | 10 | 1013.0 |
| 20260831001851 | 59 | 298 | 2.0 | 3.0 | 0.00 | 0.01 | 0.01 | 10 | 1013.1 |
| 20260831001351 | 59 | 320 | 1.0 | 5.0 | 0.00 | 0.01 | 0.01 | 10 | 1013.1 |
| 20260831000849 | 59 | 316 | 3.0 | 5.0 | 0.00 | 0.01 | 0.01 | 10 | 1013.0 |
| 20260831000344 | 59 | 316 | 2.0 | 5.0 | 0.00 | 0.01 | 0.01 | 10 | 1012.7 |
| 20260830235842 | 60 | 304 | 0.0 | 5.0 | 0.00 | 0.01 | 0.01 | 10 | 1012.7 |
| 20260830235337 | 60 | 307 | 1.0 | 5.0 | 0.00 | 0.01 | 0.01 | 10 | 1012.7 |
| 20260830234833 | 61 | 304 | 2.0 | 5.0 | 0.00 | 0.01 | 0.01 | 10 | 1012.7 |
| 20260830234328 | 62 | 309 | 4.0 | 8.0 | 0.00 | 0.01 | 0.01 | 10 | 1012.5 |
| 20260830233824 | 63 | 297 | 2.0 | 7.0 | 0.00 | 0.01 | 0.01 | 10 | 1012.5 |
| 20260830233319 | 62 | 312 | 1.0 | 5.0 | 0.00 | 0.01 | 0.01 | 10 | 1012.4 |
| 20260830232815 | 63 | 313 | 2.0 | 5.0 | 0.00 | 0.01 | 0.01 | 10 | 1012.4 |
| 20260830232310 | 63 | 285 | 0.0 | 3.0 | 0.00 | 0.01 | 0.01 | 10 | 1012.3 |
| 20260830231807 | 63 | 308 | 2.0 | 5.0 | 0.00 | 0.01 | 0.01 | 10 | 1012.2 |
| 20260830231306 | 64 | 290 | 2.0 | 5.0 | 0.00 | 0.01 | 0.01 | 10 | 1012.1 |
| 20260830230801 | 65 | 296 | 17.0 | 30.0 | 0.00 | 0.01 | 0.01 | 10 | 1012.3 |
| 20260830230256 | 65 | 272 | 0.0 | 3.0 | 0.00 | 0.01 | 0.01 | 10 | 1012.2 |
| 20260830225756 | 64 | 276 | 0.0 | 5.0 | 0.00 | 0.01 | 0.01 | 10 | 1012.2 |
| 20260830225251 | 63 | 296 | 24.0 | 27.0 | 0.00 | 0.01 | 0.01 | 10 | 1012.3 |
| 20260830224750 | 64 | 288 | 1.0 | 3.0 | 0.00 | 0.01 | 0.01 | 10 | 1012.3 |
| 20260830224245 | 64 | 280 | 20.0 | 29.0 | 0.00 | 0.01 | 0.01 | 10 | 1012.5 |
| 20260830223742 | 63 | 312 | 1.0 | 5.0 | 0.00 | 0.01 | 0.01 | 10 | 1012.3 |
| 20260830223238 | 63 | 300 | 1.0 | 5.0 | 0.00 | 0.01 | 0.01 | 10 | 1012.2 |
| 20260830222732 | 64 | 278 | 0.0 | 5.0 | 0.00 | 0.01 | 0.01 | 10 | 1012.5 |
| 20260830222227 | 63 | 295 | 18.0 | 27.0 | 0.00 | 0.01 | 0.01 | 10 | 1012.3 |
| 20260830221722 | 63 | 289 | 0.0 | 25.0 | 0.00 | 0.01 | 0.01 | 10 | 1012.4 |
| 20260830221219 | 63 | 284 | 14.0 | 26.0 | 0.00 | 0.01 | 0.01 | 10 | 1012.7 |
| 20260830220709 | 63 | 292 | 0.0 | 31.0 | 0.00 | 0.01 | 0.01 | 10 | 1012.6 |
| 20260830220208 | 63 | 264 | 2.0 | 5.0 | 0.00 | 0.01 | 0.01 | 10 | 1012.5 |
| 20260830215707 | 62 | 303 | 2.0 | 3.0 | 0.00 | 0.01 | 0.01 | 10 | 1013.0 |
| 20260830215202 | 62 | 230 | 18.0 | 30.0 | 0.00 | 0.01 | 0.01 | 10 | 1012.7 |
| 20260830214657 | 62 | 312 | 0.0 | 24.0 | 0.00 | 0.01 | 0.01 | 10 | 1013.1 |
| 20260830214151 | 62 | 298 | 1.0 | 14.0 | 0.00 | 0.01 | 0.01 | 10 | 1013.2 |
| 20260830213650 | 62 | 287 | 16.0 | 30.0 | 0.00 | 0.01 | 0.01 | 10 | 1013.2 |
| 20260830213146 | 62 | 285 | 1.0 | 3.0 | 0.00 | 0.01 | 0.01 | 10 | 1013.2 |
| 20260830212642 | 62 | 266 | 0.0 | 30.0 | 0.00 | 0.01 | 0.01 | 10 | 1013.0 |
| 20260830212136 | 62 | 293 | 3.0 | 5.0 | 0.00 | 0.01 | 0.01 | 10 | 1013.1 |
| 20260830211632 | 63 | 293 | 1.0 | 5.0 | 0.00 | 0.01 | 0.01 | 10 | 1013.4 |
| 20260830211131 | 62 | 291 | 2.0 | 20.0 | 0.00 | 0.01 | 0.01 | 10 | 1013.1 |
| 20260830210627 | 64 | 285 | 5.0 | 23.0 | 0.00 | 0.01 | 0.01 | 10 | 1013.3 |
| 20260830210126 | 62 | 281 | 17.0 | 23.0 | 0.00 | 0.01 | 0.01 | 10 | 1013.2 |
| 20260830205623 | 63 | 294 | 23.0 | 31.0 | 0.00 | 0.01 | 0.01 | 10 | 1013.0 |
| 20260830205119 | 65 | 288 | 24.0 | 30.0 | 0.00 | 0.01 | 0.01 | 10 | 1013.0 |
| 20260830204618 | 64 | 316 | 15.0 | 26.0 | 0.00 | 0.01 | 0.01 | 10 | 1013.4 |
| 20260830204117 | 64 | 277 | 20.0 | 27.0 | 0.00 | 0.01 | 0.01 | 10 | 1013.1 |
| 20260830203614 | 64 | 290 | 2.0 | 27.0 | 0.00 | 0.01 | 0.01 | 10 | 1013.2 |
| 20260830203113 | 64 | 295 | 6.0 | 18.0 | 0.00 | 0.01 | 0.01 | 10 | 1013.2 |
| 20260830202613 | 64 | 274 | 0.0 | 22.0 | 0.00 | 0.01 | 0.01 | 10 | 1012.7 |
| 20260830202108 | 66 | 271 | 1.0 | 20.0 | 0.00 | 0.01 | 0.01 | 10 | 1012.9 |
| 20260830201608 | 64 | 288 | 1.0 | 3.0 | 0.00 | 0.01 | 0.01 | 10 | 1012.9 |
| 20260830201103 | 62 | 310 | 17.0 | 25.0 | 0.00 | 0.01 | 0.01 | 10 | 1013.2 |
| 20260830200558 | 62 | 305 | 0.0 | 25.0 | 0.00 | 0.01 | 0.01 | 10 | 1013.1 |
| 20260830200057 | 62 | 285 | 18.0 | 26.0 | 0.00 | 0.01 | 0.01 | 10 | 1013.2 |
| 20260830195553 | 62 | 295 | 23.0 | 30.0 | 0.00 | 0.01 | 0.01 | 10 | 1012.9 |
| 20260830195051 | 63 | 291 | 0.0 | 21.0 | 0.00 | 0.01 | 0.01 | 10 | 1013.0 |
| 20260830194550 | 62 | 291 | 0.0 | 2.0 | 0.00 | 0.01 | 0.01 | 10 | 1013.0 |
| 20260830194045 | 62 | 294 | 0.0 | 26.0 | 0.00 | 0.01 | 0.01 | 10 | 1012.9 |
| 20260830193544 | 65 | 284 | 0.0 | 3.0 | 0.00 | 0.01 | 0.01 | 10 | 1013.1 |
| 20260830193040 | 64 | 300 | 1.0 | 5.0 | 0.00 | 0.01 | 0.01 | 10 | 1012.7 |
| 20260830192536 | 66 | 275 | 7.0 | 30.0 | 0.00 | 0.01 | 0.01 | 10 | 1012.7 |
| 20260830192035 | 66 | 287 | 11.0 | 29.0 | 0.00 | 0.01 | 0.01 | 10 | 1012.9 |
| 20260830191531 | 64 | 290 | 6.0 | 22.0 | 0.00 | 0.01 | 0.01 | 10 | 1012.7 |
| 20260830191026 | 62 | 287 | 20.0 | 26.0 | 0.00 | 0.01 | 0.01 | 10 | 1013.2 |
| 20260830190521 | 63 | 264 | 0.0 | 3.0 | 0.00 | 0.01 | 0.01 | 10 | 1012.9 |
| 20260830190016 | 63 | 283 | 0.0 | 5.0 | 0.00 | 0.01 | 0.01 | 10 | 1012.9 |
| 20260830185510 | 64 | 286 | 2.0 | 5.0 | 0.00 | 0.01 | 0.01 | 10 | 1013.0 |
| 20260830185006 | 66 | 329 | 0.0 | 20.0 | 0.00 | 0.01 | 0.01 | 10 | 1013.0 |
| 20260830184505 | 67 | 288 | 0.0 | 3.0 | 0.00 | 0.01 | 0.01 | 10 | 1012.7 |
| 20260830183959 | 65 | 283 | 0.0 | 1.0 | 0.00 | 0.01 | 0.01 | 10 | 1012.6 |
| 20260830183454 | 66 | 294 | 1.0 | 1.0 | 0.00 | 0.01 | 0.01 | 10 | 1013.0 |
| 20260830182949 | 65 | 262 | 0.0 | 1.0 | 0.00 | 0.01 | 0.01 | 10 | 1013.2 |
| 20260830182444 | 65 | 270 | 0.0 | 2.0 | 0.00 | 0.01 | 0.01 | 10 | 1012.9 |
| 20260830181940 | 64 | 292 | 3.0 | 3.0 | 0.00 | 0.01 | 0.01 | 10 | 1013.2 |
| 20260830181437 | 64 | 308 | 1.0 | 2.0 | 0.00 | 0.01 | 0.01 | 10 | 1013.2 |
| 20260830180931 | 65 | 281 | 15.0 | 24.0 | 0.00 | 0.01 | 0.01 | 10 | 1013.1 |
| 20260830180430 | 63 | 275 | 0.0 | 0.0 | 0.00 | 0.01 | 0.01 | 10 | 1013.3 |
| 20260830175929 | 64 | 301 | 0.0 | 25.0 | 0.00 | 0.01 | 0.01 | 10 | 1013.1 |
| 20260830175423 | 64 | 258 | 1.0 | 2.0 | 0.00 | 0.01 | 0.01 | 10 | 1013.2 |
| 20260830174919 | 65 | 298 | 2.0 | 5.0 | 0.00 | 0.01 | 0.01 | 10 | 1013.0 |
| 20260830174414 | 64 | 306 | 1.0 | 22.0 | 0.00 | 0.01 | 0.01 | 10 | 1013.1 |
| 20260830173910 | 63 | 308 | 0.0 | 1.0 | 0.00 | 0.01 | 0.01 | 10 | 1013.0 |
| 20260830173405 | 63 | 252 | 0.0 | 2.0 | 0.00 | 0.01 | 0.01 | 10 | 1013.2 |
| 20260830172900 | 63 | 300 | 0.0 | 1.0 | 0.00 | 0.01 | 0.01 | 10 | 1013.2 |
| 20260830172356 | 63 | 295 | 1.0 | 2.0 | 0.00 | 0.01 | 0.01 | 10 | 1013.2 |
| 20260830171852 | 64 | 311 | 0.0 | 0.0 | 0.00 | 0.01 | 0.01 | 10 | 1013.2 |
| 20260830171348 | 64 | 269 | 0.0 | 2.0 | 0.00 | 0.01 | 0.01 | 10 | 1013.5 |
| 20260830170843 | 62 | 277 | 1.0 | 22.0 | 0.00 | 0.01 | 0.01 | 10 | 1013.6 |
| 20260830170342 | 62 | 289 | 0.0 | 2.0 | 0.00 | 0.01 | 0.01 | 10 | 1013.9 |
| 20260830165840 | 62 | 278 | 0.0 | 2.0 | 0.00 | 0.01 | 0.01 | 10 | 1013.7 |
| 20260830165337 | 62 | 290 | 0.0 | 1.0 | 0.00 | 0.01 | 0.01 | 10 | 1013.5 |
| 20260830164832 | 62 | 276 | 0.0 | 18.0 | 0.00 | 0.01 | 0.01 | 10 | 1013.4 |
| 20260830164328 | 62 | 297 | 1.0 | 2.0 | 0.00 | 0.01 | 0.01 | 10 | 1013.6 |
| 20260830163825 | 62 | 305 | 0.0 | 2.0 | 0.00 | 0.01 | 0.01 | 10 | 1013.4 |
| 20260830163320 | 61 | 302 | 1.0 | 3.0 | 0.00 | 0.01 | 0.01 | 10 | 1013.6 |
| 20260830162815 | 61 | 295 | 1.0 | 2.0 | 0.00 | 0.01 | 0.01 | 10 | 1013.5 |
| 20260830162312 | 62 | 290 | 0.0 | 3.0 | 0.00 | 0.01 | 0.01 | 10 | 1013.5 |
| 20260830161811 | 62 | 295 | 0.0 | 1.0 | 0.00 | 0.01 | 0.01 | 10 | 1013.5 |
| 20260830161310 | 61 | 309 | 0.0 | 3.0 | 0.00 | 0.01 | 0.01 | 10 | 1013.3 |
| 20260830160806 | 61 | 300 | 0.0 | 2.0 | 0.00 | 0.01 | 0.01 | 10 | 1013.5 |
| 20260830160301 | 60 | 292 | 0.0 | 1.0 | 0.00 | 0.01 | 0.01 | 10 | 1013.5 |
| 20260830155757 | 60 | 294 | 0.0 | 1.0 | 0.00 | 0.01 | 0.01 | 10 | 1013.6 |
| 20260830155254 | 59 | 322 | 0.0 | 0.0 | 0.00 | 0.01 | 0.01 | 10 | 1013.7 |
| 20260830154753 | 59 | 309 | 0.0 | 0.0 | 0.00 | 0.01 | 0.01 | 10 | 1014.0 |
| 20260830154249 | 59 | 302 | 0.0 | 1.0 | 0.00 | 0.01 | 0.01 | 10 | 1013.9 |
| 20260830153745 | 58 | 331 | 0.0 | 1.0 | 0.00 | 0.01 | 0.01 | 10 | 1014.1 |
| 20260830153241 | 59 | 293 | 0.0 | 0.0 | 0.00 | 0.01 | 0.01 | 10 | 1013.7 |
| 20260830152739 | 58 | 11 | 0.0 | 0.0 | 0.00 | 0.01 | 0.01 | 10 | 1014.1 |
| 20260830152234 | 58 | 308 | 0.0 | 0.0 | 0.00 | 0.01 | 0.01 | 10 | 1014.2 |
| 20260830151733 | 58 | 310 | 0.0 | 1.0 | 0.00 | 0.01 | 0.01 | 10 | 1014.2 |
| 20260830151233 | 57 | 312 | 0.0 | 0.0 | 0.00 | 0.01 | 0.01 | 10 | 1014.1 |
| 20260830150728 | 57 | 296 | 0.0 | 0.0 | 0.00 | 0.01 | 0.01 | 10 | 1014.3 |
| 20260830150228 | 57 | 304 | 0.0 | 0.0 | 0.00 | 0.01 | 0.01 | 10 | 1014.0 |
| 20260830145723 | 57 | 300 | 0.0 | 1.0 | 0.00 | 0.01 | 0.01 | 10 | 1014.3 |
| 20260830145218 | 56 | 2 | 0.0 | 1.0 | 0.00 | 0.01 | 0.01 | 10 | 1014.3 |
| 20260830144713 | 56 | 309 | 0.0 | 0.0 | 0.00 | 0.01 | 0.01 | 10 | 1014.4 |
| 20260830144209 | 55 | 328 | 0.0 | 0.0 | 0.00 | 0.01 | 0.01 | 10 | 1014.4 |
| 20260830143705 | 55 | 300 | 0.0 | 0.0 | 0.00 | 0.01 | 0.01 | 10 | 1014.4 |
| 20260830143202 | 55 | 17 | 0.0 | 0.0 | 0.00 | 0.01 | 0.01 | 10 | 1014.4 |
| 20260830142658 | 55 | 335 | 0.0 | 0.0 | 0.00 | 0.01 | 0.01 | 10 | 1014.6 |
| 20260830142153 | 55 | 6 | 0.0 | 1.0 | 0.00 | 0.01 | 0.01 | 10 | 1014.6 |
| 20260830141648 | 56 | 326 | 0.0 | 0.0 | 0.00 | 0.01 | 0.01 | 10 | 1014.5 |
| 20260830141143 | 56 | 294 | 0.0 | 0.0 | 0.00 | 0.01 | 0.01 | 10 | 1014.6 |
| 20260830140638 | 56 | 321 | 0.0 | 0.0 | 0.00 | 0.01 | 0.01 | 10 | 1014.7 |
| 20260830140139 | 55 | 320 | 0.0 | 0.0 | 0.00 | 0.01 | 0.01 | 10 | 1014.7 |
| 20260830135634 | 55 | 39 | 0.0 | 0.0 | 0.00 | 0.01 | 0.01 | 10 | 1014.7 |
| 20260830135128 | 55 | 233 | 0.0 | 0.0 | 0.00 | 0.01 | 0.01 | 10 | 1014.8 |
| 20260830134625 | 55 | 66 | 0.0 | 0.0 | 0.00 | 0.01 | 0.01 | 10 | 1015.0 |
| 20260830134120 | 54 | 113 | 0.0 | 0.0 | 0.00 | 0.01 | 0.01 | 10 | 1014.7 |
| 20260830133615 | 53 | 90 | 0.0 | 0.0 | 0.00 | 0.01 | 0.01 | 10 | 1014.7 |
| 20260830133110 | 53 | 38 | 0.0 | 0.0 | 0.00 | 0.01 | 0.01 | 10 | 1014.6 |
| 20260830132607 | 53 | 337 | 0.0 | 0.0 | 0.00 | 0.01 | 0.01 | 10 | 1014.2 |
| 20260830132102 | 54 | 318 | 0.0 | 0.0 | 0.00 | 0.01 | 0.01 | 10 | 1014.2 |
| 20260830131601 | 54 | 311 | 0.0 | 0.0 | 0.00 | 0.01 | 0.01 | 10 | 1014.0 |